Weather in Sparta

Russia / Karachay-Cherkess Republic     44°24′47″N   41°47′53″E
temp.,
°C
wind,
m/s
gust,
m/s
humid.,
%
clouds,
%
prec.,
mm/h
press.,
hPa
HPBL,
m
23 april, fri
fri2300:00+9w4792100 0.5 1024306
03:00+6w37944 0.5 1025152
06:00+6w22910 0.0 102652
09:00+12wnw23650 0.0 1025789
12:00+15nw33485 0.0 10231600
15:00+16nnw334936 0.0 10221681
18:00+14nne346596 0.0 1021171
21:00+11e2269100 0.0 102123
24 april, sat
sat2400:00+9e1174100 0.0 101917
03:00+9ssw2275100 0.0 101926
06:00+9w1385100 0.2 1020117
09:00+12wnw2256100 0.2 1019558
12:00+15w0251100 0.0 10191099
15:00+16wnw244986 0.0 10191566
18:00+14nw466884 0.0 1019274
21:00+11nnw3587100 0.1 1022350
25 april, sun
sun2500:00+10nnw3588100 0.1 1022355
03:00+9nnw2380100 0.1 1022288
06:00+8ne1281100 0.0 1022230
09:00+8e4678100 0.1 1021427
12:00+9e6883100 0.0 1020663
15:00+10e6987100 0.0 1017714
18:00+9ene51191100 0.0 1017640
21:00+9e41091100 0.0 1017622
26 april, mon
mon2600:00+9e3795100 1.1 1015387
03:00+8e2496100 1.1 1015180
06:00+9e1195100 0.0 1015101
09:00+10ene2288100 0.0 1013440
12:00+11ene3385100 0.0 1013590
15:00+11ne3488100 0.5 1012388
18:00+9nnw4897100 2.5 1014350
21:00+8wnw2498100 3.9 1016233
27 april, tue
tue2700:00+8nnw3498100 3.3 1016258
03:00+7nw3498100 4.6 1017316
06:00+6nnw3397100 4.7 1018270
09:00+6sse0194100 7.4 1019195
12:00+8ne1188100 0.3 1019352
15:00+11ese117782 0.3 1018722
18:00+11e228497 0.0 1019153
21:00+9se238851 0.1 101966